Tracking 34085 objects as of 13-May-2026
HD Live streaming from Space Station
objects crossing your sky now

STARLINK-36923

Track STARLINK-36923 now!
10-day predictions
STARLINK-36923 is classified as:


NORAD ID: 68016
Int'l Code: 2026-040B
Perigee: 471.5 km
Apogee: 473.9 km
Inclination: 97.3 °
Period: 93.9 minutes
Semi major axis: 6843 km
RCS: Unknown
Launch date: March 1, 2026
Source: United States (US)
Launch site: AIR FORCE WESTERN TEST RANGE (AFWTR)
Your satellite tracking list
Your tracking list is empty




NASA's NSSDC Master Catalog

Two Line Element Set (TLE):
1 68016U 26040B   26132.86013278  .00016625  00000-0  51621-3 0  9990
2 68016  97.2848  81.9919 0001755  93.4397 266.7046 15.33441962 11293
Source of the keplerian elements: AFSPC